Wind_Speed
10 6 2 1 2 2 1 1 1 2 3 5 5 7 7 11 13 13 12 12 10 9 9 11 10 9 10 10 10 11 12 12 12
11 6 3 1 2 2 2 0 3 4 5 6 7 7 8 9 11 11 12 11 10 10 11 12 13 11 12 14 15 16 16 16 15
9 7 4 3 2 2 2 4 5 6 6 8 10 11 12 12 14 14 14 13 11 12 13 13 14 14 14 16 17 18 18 18 18
8 7 5 4 3 4 5 6 7 7 9 9 10 11 12 14 15 15 14 10 9 11 13 13 15 15 16 17 18 19 19 20 19
6 5 5 4 4 6 7 7 7 8 8 10 11 10 12 14 16 15 14 12 12 14 14 14 15 16 16 17 18 20 21 22 21
8 7 5 4 5 6 5 6 5 6 7 8 9 10 12 13 15 15 15 16 17 16 17 17 19 18 18 19 20 21 22 23 24
6 9 7 4 3 4 4 5 5 7 8 10 11 13 16 18 19 20 19 20 20 18 20 21 21 22 23 22 20 22 23 24 26
6 4 5 5 6 6 6 7 8 9 10 12 14 14 12 12 13 14 14 16 20 20 21 23 23 21 23 25 24 25 24 25 27
6 5 5 6 7 7 9 9 9 9 10 11 11 11 12 11 13 14 16 16 16 16 18 20 22 22 22 24 26 28 25 26 27
3 2 0 3 6 5 5 4 5 7 8 7 8 11 12 13 14 14 15 15 16 17 15 15 17 21 22 20 21 23 22 23 24
2 2 3 3 3 3 4 5 5 6 9 12 13 14 15 15 16 17 17 17 15 14 14 15 16 17 16 16 19 20 20 21 23
2 0 4 6 5 3 4 6 8 10 12 14 15 17 18 19 18 15 12 13 12 13 15 15 16 16 16 16 17 19 18 19 18
3 4 6 5 4 5 8 10 12 14 15 18 18 18 18 17 10 7 13 14 16 17 14 16 16 17 19 19 19 18 20 21 23
2 3 5 4 5 8 10 10 13 14 17 19 16 19 17 8 5 13 19 13 21 16 18 17 20 23 22 22 22 23 24 22 23
5 7 6 6 8 10 11 12 12 10 19 15 18 17 10 5 8 21 17 21 22 18 22 23 30 30 24 25 23 21 22 23 24
8 8 8 9 11 11 12 12 14 10 21 10 20 10 5 12 13 18 17 23 18 26 24 28 34 29 30 25 23 24 26 27 28
9 9 10 10 10 11 12 14 12 9 16 9 5 4 7 6 34 7 20 15 29 24 29 32 30 29 27 24 27 29 28 28 29
9 9 9 10 10 11 11 12 14 12 10 11 8 4 3 9 4 24 9 33 16 33 25 31 28 27 25 29 30 28 30 29 27
9 9 9 9 10 10 11 11 14 13 12 10 10 6 10 3 5 6 27 13 28 25 26 27 23 32 26 27 31 27 25 32 33
9 9 8 8 9 9 10 12 14 12 13 13 13 10 14 11 5 10 10 25 24 26 26 26 29 27 28 29 25 28 34 28 29
Wind_Direction
176 185 192 61 21 39 49 220 219 267 280 282 291 290 281 279 289 293 291 282 281 286 267 255 263 264 255 254 254 251 254 257 269
180 198 224 290 355 25 39 146 285 291 299 292 290 287 290 295 301 302 302 296 271 284 277 268 265 273 263 261 260 260 265 266 266
187 202 222 265 287 303 275 271 276 282 286 292 289 291 297 300 303 306 304 304 282 279 276 273 271 273 270 268 267 265 264 263 265
193 232 244 263 269 280 289 281 280 281 284 288 286 288 292 297 304 310 314 311 301 284 276 278 273 273 272 271 270 270 269 262 257
217 234 249 261 281 289 298 299 299 297 302 306 304 303 303 305 305 306 310 309 299 282 278 275 271 271 270 269 269 270 270 266 268
219 231 241 265 310 309 310 309 317 317 321 322 323 314 317 313 311 306 313 306 298 286 274 272 273 269 270 270 269 269 268 268 268
225 240 251 259 286 326 326 322 319 324 323 322 313 307 302 301 302 304 306 308 304 289 280 284 277 269 270 269 272 273 270 269 266
222 223 238 258 275 299 308 315 318 315 320 322 311 317 329 330 332 334 333 320 299 293 294 295 291 284 273 270 269 270 268 264 265
222 247 261 263 277 298 298 303 310 321 329 332 331 328 330 333 335 332 326 323 320 321 317 310 307 299 289 281 276 273 275 279 278
184 156 210 329 312 335 6 30 349 324 328 341 333 325 323 323 326 328 330 332 331 326 333 329 321 317 296 295 296 294 293 289 286
111 85 54 39 35 46 43 13 358 347 333 321 319 319 316 322 326 325 324 326 335 341 350 350 346 345 344 330 324 318 310 307 301
174 124 78 73 58 19 346 353 337 329 328 325 322 317 313 318 321 328 339 348 355 353 347 357 355 4 360 349 340 333 331 334 337
120 84 74 60 24 2 350 344 343 345 340 332 327 321 322 321 332 353 351 357 355 352 358 355 351 350 352 344 336 334 330 326 322
138 94 68 29 4 0 360 359 359 355 345 338 330 325 322 344 19 350 349 357 354 353 352 354 350 344 345 340 334 327 323 324 322
105 86 55 25 10 8 7 4 5 6 354 341 332 326 321 346 338 343 345 347 342 347 349 344 343 339 339 334 331 329 325 322 319
86 64 44 30 23 18 11 8 7 7 3 347 338 328 321 305 339 344 351 339 339 339 341 338 334 333 331 333 332 329 326 321 317
73 58 44 32 25 23 21 20 14 7 9 340 319 339 324 311 322 319 337 341 331 330 327 325 332 330 331 324 326 323 323 319 316
62 51 41 32 25 26 23 20 19 4 3 33 47 345 315 324 273 319 323 328 336 322 325 324 323 325 320 317 318 320 317 315 309
55 46 37 29 26 23 18 13 10 4 3 5 344 338 300 310 317 327 315 317 315 316 314 316 315 317 311 313 313 314 314 311 305
50 39 32 29 22 18 9 4 4 7 355 352 342 333 316 293 262 301 313 310 311 310 311 312 310 312 312 312 311 310 308 305 306
Height
790 791 791 791 791 791 791 791 791 791 791 791 791 791 790 789 788 787 787 786 786 786 786 787 786 785 785 786 786 785 785 785 786
789 790 790 790 790 790 790 791 791 790 791 790 790 790 788 788 786 786 785 784 784 784 784 785 785 783 783 784 784 784 783 783 783
788 790 790 790 789 789 790 790 790 789 790 789 788 788 787 786 785 784 783 782 781 782 782 782 782 782 781 782 781 781 780 781 781
787 789 790 789 788 789 789 788 788 788 787 786 786 786 785 783 782 781 780 779 778 778 779 779 779 779 779 778 778 778 777 777 777
787 789 789 788 787 788 787 787 786 786 785 784 784 783 782 781 780 779 778 777 776 776 776 776 776 775 775 774 774 774 773 773 773
786 787 787 787 786 786 786 785 785 785 784 783 782 781 780 779 777 776 775 774 773 772 772 772 772 771 770 770 769 769 768 768 768
784 785 786 786 785 785 785 784 784 783 782 781 781 779 778 776 775 773 772 771 770 769 769 768 767 766 765 765 764 764 762 762 762
784 785 785 785 785 785 784 784 783 782 781 780 778 777 775 774 772 771 770 769 768 766 765 764 762 761 760 760 758 758 755 755 755
784 784 785 784 784 784 783 782 782 781 780 778 777 775 774 772 771 769 768 767 765 763 761 760 758 756 755 754 753 752 751 750 750
783 784 784 783 783 782 782 781 780 779 778 776 775 773 771 770 768 766 764 762 761 759 758 757 755 752 749 749 748 747 745 745 744
784 784 783 782 782 781 781 780 778 777 776 774 772 771 769 767 765 763 761 760 758 756 755 754 752 749 747 745 744 743 742 741 740
783 783 782 782 782 780 780 778 777 775 774 772 770 768 766 764 762 761 760 758 756 755 753 751 749 747 746 745 743 741 739 738 736
783 783 783 782 781 780 778 777 775 774 772 770 768 766 764 761 760 759 758 757 755 753 750 749 747 745 744 743 742 739 737 734 732
784 784 783 783 781 779 778 777 775 773 771 768 766 763 760 759 758 757 756 755 753 751 748 747 745 743 742 740 738 736 734 730 728
785 784 783 783 781 780 778 777 776 774 771 767 764 759 758 757 756 755 753 752 750 748 746 743 741 740 738 737 735 733 730 728 725
784 783 784 783 782 780 779 777 775 773 770 766 761 756 755 754 753 752 751 750 748 746 744 742 740 737 735 733 730 728 725 723 720
784 784 784 784 783 782 780 778 776 775 773 770 765 762 756 752 751 751 750 748 746 744 742 740 738 736 732 729 727 724 721 718 715
785 785 785 785 784 783 781 780 777 775 773 772 771 770 768 759 750 749 747 746 744 742 739 737 734 732 729 726 723 720 717 714 711
786 786 785 785 784 784 783 781 779 776 774 772 772 772 770 766 754 746 744 743 742 739 736 733 731 728 725 722 719 717 714 710 707
786 786 786 785 784 784 783 781 779 777 775 773 770 768 766 764 761 748 742 739 737 733 730 728 725 723 720 717 714 712 709 705 702